Location: Bruch
(44.2051°N, 0.4120°E)
Time: 03:41:05
(UTC+00:00)

Cosmos 1500 Rocket - Pass Details

Date: 29 November 2020
Orbit: 603 x 631 km, 82.5° (Epoch: 24 January)

Event Time Altitude Azimuth Distance (km) Brightness Sun altitude
Rises 06:07:01 0° 208° (SSW) 2,843 6.9 -11.4°
Reaches altitude 10° 06:09:21 10° 217° (SW) 1,945 5.9 -11.0°
Maximum altitude 06:13:20 36° 284° (WNW) 964 4.0 -10.3°
Drops below altitude 10° 06:17:21 10° 352° (N) 1,967 5.9 -9.6°
Sets 06:19:44 0° 1° (N) 2,879 6.8 -9.2°
